When you browse on this site, cookies collect data to enhance your experience and personalize the content and advertising you see.
Visit our Privacy Policy to learn more. By continuing to use the site, you agree to this use of cookies and data.
  • en Suisse
  • Liste des pays
  • À 7 jours
  • Température de l'eau
  • Carte météo
  • Widgets météo
  • user-avatar
    Se connecter

    Météo par heure à Hérât

    Ce jour, 20 Octobre, Dimanche

    Heure Température Précipitation Vent Pression Humidité
    00:00 +11°C° 0 mm 1 m/s 680 mmHg 45%
    01:00 +11°C° 0 mm 1 m/s 680 mmHg 50%
    02:00 +10°C° 0 mm 1 m/s 680 mmHg 52%
    03:00 +10°C° 0 mm 1 m/s 680 mmHg 54%
    04:00 +8°C° 0 mm 0 m/s 680 mmHg 56%
    05:00 +10°C° 0 mm 0 m/s 680 mmHg 45%
    06:00 +11°C° 0 mm 0 m/s 681 mmHg 34%
    07:00 +13°C° 0 mm 0 m/s 682 mmHg 23%
    08:00 +18°C° 0 mm 1 m/s 682 mmHg 20%
    09:00 +21°C° 0 mm 1 m/s 683 mmHg 16%
    10:00 +24°C° 0 mm 1 m/s 684 mmHg 12%
    11:00 +25°C° 0 mm 1 m/s 684 mmHg 11%
    12:00 +26°C° 0 mm 2 m/s 683 mmHg 10%
    13:00 +28°C° 0 mm 3 m/s 683 mmHg 8%
    14:00 +27°C° 0 mm 3 m/s 683 mmHg 9%
    15:00 +27°C° 0 mm 4 m/s 683 mmHg 9%
    16:00 +26°C° 0 mm 5 m/s 682 mmHg 10%
    17:00 +22°C° 0 mm 5 m/s 682 mmHg 13%
    18:00 +19°C° 0 mm 4 m/s 682 mmHg 16%
    19:00 +17°C° 0 mm 4 m/s 682 mmHg 19%
    20:00 +14°C° 0 mm 4 m/s 682 mmHg 21%
    21:00 +13°C° 0 mm 3 m/s 682 mmHg 22%
    22:00 +12°C° 0 mm 3 m/s 682 mmHg 24%
    23:00 +13°C° 0 mm 2 m/s 681 mmHg 25%

    Demain, 21 Octobre, Lundi

    Heure Température Précipitation Vent Pression Humidité
    00:00 +13°C° 0 mm 2 m/s 681 mmHg 25%
    01:00 +12°C° 0 mm 2 m/s 681 mmHg 26%
    02:00 +12°C° 0 mm 2 m/s 681 mmHg 26%
    03:00 +12°C° 0 mm 2 m/s 681 mmHg 27%
    04:00 +10°C° 0 mm 2 m/s 681 mmHg 27%
    05:00 +13°C° 0 mm 2 m/s 681 mmHg 25%
    06:00 +14°C° 0 mm 2 m/s 682 mmHg 24%
    07:00 +15°C° 0 mm 2 m/s 683 mmHg 22%
    08:00 +18°C° 0 mm 2 m/s 683 mmHg 19%
    09:00 +20°C° 0 mm 2 m/s 683 mmHg 16%
    10:00 +24°C° 0 mm 2 m/s 684 mmHg 13%
    11:00 +25°C° 0 mm 3 m/s 684 mmHg 13%
    12:00 +26°C° 0 mm 4 m/s 683 mmHg 12%
    13:00 +27°C° 0 mm 5 m/s 683 mmHg 12%
    14:00 +26°C° 0 mm 6 m/s 683 mmHg 13%
    15:00 +24°C° 0 mm 7 m/s 682 mmHg 13%
    16:00 +23°C° 0 mm 8 m/s 682 mmHg 14%
    17:00 +22°C° 0 mm 8 m/s 682 mmHg 15%
    18:00 +20°C° 0 mm 8 m/s 682 mmHg 17%
    19:00 +18°C° 0 mm 7 m/s 682 mmHg 19%
    20:00 +17°C° 0 mm 6 m/s 682 mmHg 20%
    21:00 +15°C° 0 mm 4 m/s 682 mmHg 22%
    22:00 +14°C° 0 mm 3 m/s 682 mmHg 24%
    23:00 +14°C° 0 mm 3 m/s 682 mmHg 24%

    Après-demain, 22 Octobre, Mardi

    Heure Température Précipitation Vent Pression Humidité
    00:00 +14°C° 0 mm 3 m/s 681 mmHg 24%
    01:00 +14°C° 0 mm 3 m/s 681 mmHg 24%
    02:00 +13°C° 0 mm 4 m/s 681 mmHg 24%
    03:00 +12°C° 0 mm 5 m/s 681 mmHg 24%
    04:00 +11°C° 0 mm 6 m/s 681 mmHg 24%
    05:00 +11°C° 0 mm 6 m/s 681 mmHg 23%
    06:00 +13°C° 0 mm 6 m/s 682 mmHg 23%
    07:00 +14°C° 0 mm 6 m/s 682 mmHg 22%
    08:00 +16°C° 0 mm 6 m/s 682 mmHg 21%
    09:00 +19°C° 0 mm 6 m/s 683 mmHg 19%
    10:00 +21°C° 0 mm 7 m/s 683 mmHg 18%
    11:00 +22°C° 0 mm 7 m/s 683 mmHg 17%
    12:00 +23°C° 0 mm 7 m/s 683 mmHg 16%
    13:00 +23°C° 0 mm 8 m/s 682 mmHg 15%
    14:00 +22°C° 0 mm 9 m/s 682 mmHg 16%
    15:00 +21°C° 0 mm 10 m/s 682 mmHg 17%
    16:00 +19°C° 0 mm 11 m/s 681 mmHg 18%
    17:00 +17°C° 0 mm 9 m/s 681 mmHg 20%
    18:00 +15°C° 0 mm 8 m/s 681 mmHg 22%
    19:00 +13°C° 0 mm 6 m/s 682 mmHg 24%
    20:00 +12°C° 0 mm 5 m/s 681 mmHg 25%
    21:00 +11°C° 0 mm 4 m/s 681 mmHg 26%
    22:00 +9°C° 0 mm 3 m/s 681 mmHg 28%
    23:00 +9°C° 0 mm 3 m/s 681 mmHg 29%

    23 Octobre, Mercredi

    Heure Température Précipitation Vent Pression Humidité
    00:00 +8°C° 0 mm 2 m/s 680 mmHg 30%
    01:00 +8°C° 0 mm 2 m/s 680 mmHg 31%
    02:00 +7°C° 0 mm 2 m/s 680 mmHg 34%
    03:00 +7°C° 0 mm 2 m/s 680 mmHg 38%
    04:00 +6°C° 0 mm 2 m/s 680 mmHg 41%
    05:00 +7°C° 0 mm 2 m/s 680 mmHg 37%
    06:00 +8°C° 0 mm 2 m/s 681 mmHg 33%
    07:00 +9°C° 0 mm 2 m/s 681 mmHg 29%
    08:00 +13°C° 0 mm 2 m/s 682 mmHg 24%
    09:00 +14°C° 0 mm 3 m/s 682 mmHg 20%
    10:00 +18°C° 0 mm 3 m/s 683 mmHg 15%
    11:00 +19°C° 0 mm 4 m/s 682 mmHg 13%
    12:00 +21°C° 0 mm 5 m/s 682 mmHg 12%
    13:00 +22°C° 0 mm 6 m/s 682 mmHg 10%
    14:00 +21°C° 0 mm 6 m/s 681 mmHg 12%
    15:00 +20°C° 0 mm 7 m/s 681 mmHg 14%
    16:00 +18°C° 0 mm 8 m/s 681 mmHg 15%
    17:00 +16°C° 0 mm 7 m/s 681 mmHg 19%
    18:00 +13°C° 0 mm 6 m/s 681 mmHg 23%
    19:00 +10°C° 0 mm 5 m/s 681 mmHg 27%
    20:00 +10°C° 0 mm 4 m/s 681 mmHg 28%
    21:00 +9°C° 0 mm 3 m/s 681 mmHg 30%
    22:00 +8°C° 0 mm 3 m/s 681 mmHg 32%
    23:00 +7°C° 0 mm 3 m/s 680 mmHg 33%

    24 Octobre, Jeudi

    Heure Température Précipitation Vent Pression Humidité
    00:00 +7°C° 0 mm 2 m/s 680 mmHg 35%
    01:00 +6°C° 0 mm 2 m/s 680 mmHg 37%
    02:00 +6°C° 0 mm 2 m/s 680 mmHg 40%
    03:00 +5°C° 0 mm 2 m/s 680 mmHg 43%
    04:00 +5°C° 0 mm 2 m/s 680 mmHg 46%
    05:00 +6°C° 0 mm 2 m/s 680 mmHg 41%
    06:00 +6°C° 0 mm 2 m/s 680 mmHg 36%
    07:00 +7°C° 0 mm 2 m/s 681 mmHg 31%
    08:00 +10°C° 0 mm 2 m/s 681 mmHg 26%
    09:00 +14°C° 0 mm 2 m/s 682 mmHg 20%
    10:00 +17°C° 0 mm 2 m/s 682 mmHg 15%
    11:00 +18°C° 0 mm 2 m/s 682 mmHg 13%
    12:00 +20°C° 0 mm 3 m/s 682 mmHg 11%
    13:00 +21°C° 0 mm 3 m/s 681 mmHg 9%
    14:00 +20°C° 0 mm 4 m/s 681 mmHg 10%
    15:00 +20°C° 0 mm 5 m/s 681 mmHg 11%
    16:00 +19°C° 0 mm 5 m/s 681 mmHg 12%
    17:00 +15°C° 0 mm 5 m/s 680 mmHg 16%
    18:00 +12°C° 0 mm 4 m/s 680 mmHg 20%
    19:00 +9°C° 0 mm 3 m/s 680 mmHg 24%
    20:00 +8°C° 0 mm 3 m/s 680 mmHg 25%
    21:00 +7°C° 0 mm 3 m/s 680 mmHg 26%
    22:00 +7°C° 0 mm 2 m/s 680 mmHg 27%
    23:00 +6°C° 0 mm 2 m/s 680 mmHg 27%

    25 Octobre, Vendredi

    Heure Température Précipitation Vent Pression Humidité
    00:00 +6°C° 0 mm 2 m/s 680 mmHg 28%
    01:00 +5°C° 0 mm 2 m/s 680 mmHg 29%
    02:00 +5°C° 0 mm 2 m/s 680 mmHg 30%
    03:00 +4°C° 0 mm 2 m/s 679 mmHg 32%
    04:00 +4°C° 0 mm 2 m/s 679 mmHg 33%
    05:00 +5°C° 0 mm 2 m/s 680 mmHg 31%
    06:00 +6°C° 0 mm 2 m/s 680 mmHg 29%
    07:00 +8°C° 0 mm 1 m/s 681 mmHg 27%
    08:00 +11°C° 0 mm 1 m/s 681 mmHg 23%
    09:00 +13°C° 0 mm 1 m/s 682 mmHg 18%
    10:00 +16°C° 0 mm 1 m/s 682 mmHg 14%
    11:00 +18°C° 0 mm 2 m/s 682 mmHg 12%
    12:00 +19°C° 0 mm 3 m/s 682 mmHg 10%
    13:00 +21°C° 0 mm 3 m/s 682 mmHg 9%
    14:00 +21°C° 0 mm 4 m/s 682 mmHg 9%
    15:00 +20°C° 0 mm 5 m/s 682 mmHg 10%
    16:00 +19°C° 0 mm 6 m/s 682 mmHg 10%
    17:00 +15°C° 0 mm 5 m/s 682 mmHg 13%
    18:00 +12°C° 0 mm 4 m/s 681 mmHg 17%
    19:00 +10°C° 0 mm 3 m/s 681 mmHg 20%
    20:00 +9°C° 0 mm 3 m/s 681 mmHg 22%
    21:00 +8°C° 0 mm 2 m/s 681 mmHg 23%
    22:00 +7°C° 0 mm 2 m/s 681 mmHg 25%
    23:00 +7°C° 0 mm 2 m/s 681 mmHg 26%
    Voir plus